Preview of NWS' New Version of Forecast
This preview is not operational and should not be used for support decisions.

Regional Weather Roundup (RWR)

Issued by Raleigh, NC (RAH)

                            
000
ASUS42 KRAH 160810
RWRRAH
NORTH CAROLINA WEATHER ROUNDUP
NATIONAL WEATHER SERVICE RALEIGH NC
400 AM EDT TUE OCT 16 2018

NOTE: "FAIR" INDICATES FEW OR NO CLOUDS BELOW 12,000 FEET WITH NO
SIGNIFICANT WEATHER AND/OR OBSTRUCTIONS TO VISIBILITY.

NCZ001-053-055-056-065-067-160900-
WESTERN NORTH CAROLINA
  
CITY           SKY/WX    TMP DP  RH WIND       PRES   REMARKS
ASHEVILLE      CLOUDY    63  62  97 NW3       30.16R FOG              
JEFFERSON      CLOUDY    57  56  95 N6        30.17F                  
MORGANTON      FAIR      61  61 100 CALM      30.12F                  
HICKORY        FAIR      62  62 100 NW3       30.08F                  
RUTHERFORDTON  NOT AVBL                                               
MOUNT AIRY     MOCLDY    65  62  90 CALM      30.13R                  
BOONE          CLOUDY    59  59 100 CALM      30.18F                  
$$
 
NCZ021-022-025-041-071-084-088-160900-
CENTRAL NORTH CAROLINA
  
CITY           SKY/WX    TMP DP  RH WIND       PRES   REMARKS
CHARLOTTE      FAIR      67  66  97 CALM      30.10F                  
GREENSBORO     MOCLDY    67  64  90 NW6       30.08R                  
WINSTON-SALEM  FAIR      67  63  87 NW6       30.10R                  
RALEIGH-DURHAM FAIR      68  67  96 SW8       30.08S                  
FORT BRAGG     FAIR      70  69  98 SW3       30.07F                  
FAYETTEVILLE   FAIR      69  67  93 S6        30.07F                  
BURLINGTON     FAIR      67  64  90 S6        30.06F                  
LAURINBURG     FAIR      68  67  96 CALM      30.09F                  
$$
 
NCZ011-015-027-028-043-044-047-080-103-160900-
NORTHEASTERN NORTH CAROLINA
  
CITY           SKY/WX    TMP DP  RH WIND       PRES   REMARKS
ROCKY MT-WILSO FAIR      69  68  96 S6        30.07S                  
GREENVILLE     FAIR      68  68 100 SW6       30.08F                  
WASHINGTON     FAIR      68  67  94 CALM      30.08S                  
ELIZABETH CITY FAIR      71  68  90 S8        30.06F                  
MANTEO         FAIR      72  68  89 SW9       30.07S                  
CAPE HATTERAS  FAIR      77  73  87 SW7       30.09F                  
$$
 
NCZ078-087-090-091-093-098-101-160900-
SOUTHEASTERN NORTH CAROLINA
  
CITY           SKY/WX    TMP DP  RH WIND       PRES   REMARKS
LUMBERTON      FAIR      67  66  97 CALM      30.08S                  
GOLDSBORO      FAIR      69  67  94 S5        30.05F                  
KINSTON        FAIR      70  68  94 SW6       30.08F                  
KENANSVILLE    FAIR      68  68 100 CALM      30.08F                  
NEW BERN       FAIR      71  70  96 S6        30.09F                  
CHERRY POINT   FAIR      72  72 100 S3        30.09F                  
BEAUFORT         N/A     77  72  84 SW10      30.09F                  
JACKSONVILLE   FAIR      72  70  93 S6        30.08F                  
WILMINGTON     FAIR      72  69  90 S5        30.08F                  
$$